Ypsilanti, MI

11:21 AM EDT on May 29, 2017 (GMT -0400)
Willow Run

Weather History for KYIP - October, 2013

Change the Weather History Date:

Thursday, October 17, 2013

  Actual Average Record
Temperature  
Mean Temperature 51 °F -  
Max Temperature 55 °F 59 °F 84 °F (1996)
Min Temperature 48 °F 42 °F 25 °F (1977)
Degree Days  
Heating Degree Days 14    
Growing Degree Days 1 (Base 50)    
Moisture  
Dew Point 46 °F    
Average Humidity 79    
Maximum Humidity 83    
Minimum Humidity 72    
Precipitation  
Precipitation 0.02 in - - ()
Sea Level Pressure  
Sea Level Pressure 29.84 in    
Wind  
Wind Speed 8 mph (SW)    
Max Wind Speed 16 mph    
Max Gust Speed 21 mph    
Visibility 8 miles    
Events Rain    
Averages and records for this station are not official NWS values.
T = Trace of Precipitation, MM = Missing Value Source: NWS Daily Summary

Daily Weather History Graph

Daily Weather History Graph

Search for Another Location

Airport or City:

Trip Planner

Search our weather history database for the weather conditions in past years. The results will help you decide how hot, cold, wet, or windy it might be!

Date:

Astronomy

Oct. 17, 2013 Rise Set
Actual Time 7:49 AM EDT 6:48 PM EDT
Civil Twilight 7:21 AM EDT 7:17 PM EDT
Nautical Twilight 6:48 AM EDT 7:49 PM EDT
Astronomical Twilight 6:16 AM EDT 8:21 PM EDT
Moon 6:02 PM EDT (10/17) 6:19 AM EDT (10/17)
Length of Visible Light 11h 55m
Length of Day
10h 59m
Waxing Gibbous, 98% of the Moon is Illuminated
Oct 17
Waxing Gibbous
Oct 18
Full
Oct 26
Last Quarter
Nov 3
New
Nov 10
First Quarter

Hourly Weather History & Observations

Time (EDT) Temp. Dew Point Humidity Pressure Visibility Wind Dir Wind Speed Gust Speed Precip Events Conditions
12:21 AM 53.6 °F 44.6 °F 72% 29.92 in 10.0 mi WSW 8.1 mph - N/A   Overcast
12:53 AM 54.0 °F 45.0 °F 72% 29.91 in 10.0 mi WSW 9.2 mph - N/A   Overcast
1:53 AM 54.0 °F 45.0 °F 72% 29.91 in 10.0 mi WSW 8.1 mph - N/A   Overcast
2:53 AM 54.0 °F 45.0 °F 72% 29.90 in 10.0 mi SW 4.6 mph - N/A   Overcast
3:53 AM 53.1 °F 46.0 °F 77% 29.89 in 10.0 mi SW 6.9 mph - N/A   Overcast
4:53 AM 52.0 °F 45.0 °F 77% 29.89 in 10.0 mi SW 6.9 mph - N/A   Overcast
5:53 AM 50.0 °F 44.1 °F 80% 29.88 in 10.0 mi SW 5.8 mph - N/A   Mostly Cloudy
6:53 AM 48.9 °F 43.0 °F 80% 29.88 in 10.0 mi SSW 3.5 mph - N/A   Clear
7:53 AM 48.0 °F 43.0 °F 83% 29.88 in 9.0 mi SSW 5.8 mph - N/A   Clear
8:53 AM 50.0 °F 45.0 °F 83% 29.89 in 8.0 mi WSW 5.8 mph - N/A   Overcast
9:06 AM 50.0 °F 44.6 °F 82% 29.88 in 8.0 mi Calm Calm - N/A   Overcast
9:27 AM 51.8 °F 44.6 °F 76% 29.90 in 8.0 mi SW 3.5 mph - N/A   Overcast
9:53 AM 51.1 °F 46.0 °F 83% 29.89 in 8.0 mi SSW 4.6 mph - N/A   Overcast
10:53 AM 53.1 °F 46.0 °F 77% 29.87 in 8.0 mi SSW 3.5 mph - N/A   Mostly Cloudy
11:31 AM 53.6 °F 46.4 °F 77% 29.86 in 5.0 mi South 4.6 mph - 0.00 in Rain Light Rain
11:40 AM 53.6 °F 46.4 °F 77% 29.87 in 6.0 mi SSW 6.9 mph - 0.00 in Rain Light Rain
11:53 AM 53.1 °F 46.9 °F 80% 29.86 in 7.0 mi SSW 6.9 mph - 0.00 in Rain Light Rain
12:03 PM 53.6 °F 48.2 °F 82% 29.86 in 7.0 mi SSW 5.8 mph - 0.00 in   Overcast
12:11 PM 53.6 °F 46.4 °F 77% 29.86 in 7.0 mi SSW 5.8 mph - 0.00 in   Overcast
12:20 PM 53.6 °F 48.2 °F 82% 29.86 in 7.0 mi South 5.8 mph - 0.00 in   Overcast
12:53 PM 53.1 °F 48.0 °F 83% 29.84 in 4.0 mi South 5.8 mph - 0.00 in Rain Light Rain
1:40 PM 53.6 °F 48.2 °F 82% 29.82 in 4.0 mi SSW 6.9 mph - 0.00 in Rain Light Rain
1:48 PM 53.6 °F 48.2 °F 82% 29.83 in 3.0 mi SSW 9.2 mph - 0.00 in Rain Light Rain
1:53 PM 53.1 °F 48.0 °F 83% 29.82 in 3.0 mi SW 8.1 mph - 0.00 in Rain Light Rain
2:01 PM 53.6 °F 48.2 °F 82% 29.82 in 2.5 mi SSW 6.9 mph - 0.00 in Rain Rain
2:13 PM 53.6 °F 48.2 °F 82% 29.81 in 3.0 mi South 6.9 mph - 0.00 in Rain Light Rain
2:53 PM 54.0 °F 48.0 °F 80% 29.80 in 7.0 mi SW 9.2 mph - 0.00 in Rain Light Rain
3:33 PM 53.6 °F 46.4 °F 77% 29.79 in 4.0 mi SW 11.5 mph - 0.01 in Rain Light Rain
3:53 PM 53.1 °F 46.9 °F 80% 29.79 in 10.0 mi SW 12.7 mph 20.7 mph 0.01 in Rain Light Rain
4:15 PM 53.6 °F 46.4 °F 77% 29.78 in 6.0 mi SW 9.2 mph - 0.00 in Rain Light Rain
4:32 PM 53.6 °F 46.4 °F 77% 29.78 in 10.0 mi SW 10.4 mph - 0.00 in Rain Light Rain
4:51 PM 53.6 °F 46.4 °F 77% 29.78 in 10.0 mi SW 10.4 mph - 0.00 in   Overcast
4:53 PM 53.1 °F 46.9 °F 80% 29.78 in 10.0 mi SW 11.5 mph - 0.00 in   Overcast
5:41 PM 53.6 °F 46.4 °F 77% 29.77 in 10.0 mi SW 10.4 mph - N/A   Overcast
5:53 PM 53.1 °F 46.9 °F 80% 29.77 in 10.0 mi SW 9.2 mph - N/A   Overcast
6:53 PM 52.0 °F 46.0 °F 80% 29.78 in 10.0 mi SW 8.1 mph - N/A   Overcast
7:53 PM 52.0 °F 46.0 °F 80% 29.79 in 10.0 mi SW 11.5 mph - N/A   Overcast
8:04 PM 51.8 °F 46.4 °F 82% 29.80 in 10.0 mi SW 10.4 mph - N/A   Overcast
8:53 PM 52.0 °F 46.0 °F 80% 29.81 in 9.0 mi WSW 13.8 mph - 0.01 in Rain Light Rain
9:24 PM 51.8 °F 44.6 °F 76% 29.82 in 10.0 mi WSW 16.1 mph - 0.00 in   Overcast
9:53 PM 51.1 °F 44.1 °F 77% 29.83 in 10.0 mi West 16.1 mph - 0.00 in   Mostly Cloudy
10:53 PM 50.0 °F 43.0 °F 77% 29.85 in 10.0 mi West 11.5 mph - N/A   Partly Cloudy
11:53 PM 50.0 °F 44.1 °F 80% 29.86 in 10.0 mi WSW 8.1 mph - N/A   Overcast